Location: Leiter
(44.7178°N, 106.2687°W)
Time: 00:19:50
(UTC+00:00)

AO-91 - Visible Passes

Search period start: 28 June 2022 00:00
Search period end: 08 July 2022 00:00
Orbit: 450 x 799 km, 97.7° (Epoch: 27 June)

Date Brightness Start Highest point End Pass type
(mag) Time Alt. Az. Time Alt. Az. Time Alt. Az.
28 Jun ? 04:53:03 10° ENE 04:54:23 12° E 04:54:23 12° E visible
28 Jun ? 06:27:52 10° N 06:31:08 36° WNW 06:31:39 34° W visible
29 Jun ? 05:10:47 10° NE 05:13:15 20° E 05:13:15 20° E visible
29 Jun ? 06:46:57 10° NNW 06:49:42 22° WNW 06:50:30 20° W visible
30 Jun ? 05:29:04 10° NNE 05:32:06 34° E 05:32:06 34° E visible
30 Jun ? 07:06:23 10° NNW 07:08:13 14° WNW 07:09:21 12° W visible
01 Jul ? 05:47:35 10° NNE 05:50:57 63° E 05:50:57 63° E visible
02 Jul ? 06:06:15 10° N 06:09:40 70° WNW 06:09:47 69° W visible
03 Jul ? 04:50:33 10° ENE 04:51:23 11° E 04:51:23 11° E visible
03 Jul ? 06:25:05 10° N 06:28:17 38° WNW 06:28:38 37° W visible
04 Jul ? 05:08:04 10° NE 05:10:13 19° E 05:10:13 19° E visible
04 Jul ? 06:44:06 10° NNW 06:46:51 23° WNW 06:47:28 22° W visible
05 Jul ? 05:26:16 10° NNE 05:29:03 32° E 05:29:03 32° E visible
05 Jul ? 07:03:26 10° NNW 07:05:22 15° WNW 07:06:19 13° W visible
06 Jul ? 05:44:42 10° NNE 05:47:53 57° E 05:47:53 57° E visible
07 Jul ? 06:03:19 10° N 06:06:42 76° WNW 06:06:44 76° W visible
